Location: *
(46.3500°N, 10.9000°E)
Time: 21:58:46
(UTC+00:00)

Explorer 7 - Pass Details

Date: 22 April 2021
Orbit: 484 x 677 km, 50.3° (Epoch: 05 May)

Event Time Altitude Azimuth Distance (km) Brightness Sun altitude
Rises 20:43:26 0° 274° (W) 2,676 11.0 -22.1°
Reaches altitude 10° 20:45:39 10° 280° (W) 1,816 10.1 -22.3°
Maximum altitude 20:49:41 49° 356° (N) 737 7.7 -22.7°
Enters shadow 20:51:36 29° 56° (NE) 1,091 8.2 -23.0°
Drops below altitude 10° 20:54:00 10° 72° (ENE) 1,937 - -23.2°
Sets 20:56:25 0° 78° (ENE) 2,876 - -23.5°
